Escanaba, MI

6:32 AM EST on February 22, 2017 (GMT -0500)
Delta County

Weather History for KESC - January, 2013

Change the Weather History Date:

Tuesday, January 15, 2013

  Actual Average Record
Temperature  
Mean Temperature 16 °F -  
Max Temperature 28 °F 22 °F 38 °F (1949)
Min Temperature 3 °F 5 °F -25 °F (1972)
Degree Days  
Heating Degree Days 50    
Moisture  
Dew Point 7 °F    
Average Humidity 63    
Maximum Humidity 85    
Minimum Humidity 43    
Precipitation  
Precipitation 0.00 in - - ()
Sea Level Pressure  
Sea Level Pressure 30.22 in    
Wind  
Wind Speed 10 mph (WSW)    
Max Wind Speed 18 mph    
Max Gust Speed 25 mph    
Visibility 10 miles    
Events      
Averages and records for this station are not official NWS values.
T = Trace of Precipitation, MM = Missing Value Source: NWS Daily Summary

Daily Weather History Graph

Daily Weather History Graph

Search for Another Location

Airport or City:

Trip Planner

Search our weather history database for the weather conditions in past years. The results will help you decide how hot, cold, wet, or windy it might be!

Date:

Astronomy

Jan. 15, 2013 Rise Set
Actual Time 8:25 AM EST 5:31 PM EST
Civil Twilight 7:51 AM EST 6:04 PM EST
Nautical Twilight 7:15 AM EST 6:41 PM EST
Astronomical Twilight 6:39 AM EST 7:16 PM EST
Moon 10:14 AM EST (1/15) 10:38 PM EST (1/15)
Length of Visible Light 10h 12m
Length of Day
9h 05m
Waxing Crescent, 19% of the Moon is Illuminated
Jan 15
Waxing Crescent
Jan 18
First Quarter
Jan 26
Full
Feb 3
Last Quarter
Feb 10
New

Hourly Weather History & Observations

Time (EST) Temp. Windchill Dew Point Humidity Pressure Visibility Wind Dir Wind Speed Gust Speed Precip Events Conditions
12:15 AM 10.4 °F -2.4 °F 1.4 °F 67% 30.34 in 10.0 mi West 9.2 mph - N/A   Clear
12:35 AM 10.4 °F -4.1 °F 1.4 °F 67% 30.34 in 10.0 mi West 11.5 mph - N/A   Clear
12:55 AM 10.4 °F -2.4 °F -0.4 °F 62% 30.34 in 10.0 mi West 9.2 mph - N/A   Clear
1:15 AM 10.4 °F -2.4 °F 1.4 °F 67% 30.35 in 10.0 mi West 9.2 mph - N/A   Clear
1:35 AM 10.4 °F -3.3 °F 1.4 °F 67% 30.34 in 10.0 mi West 10.4 mph - N/A   Clear
1:55 AM 10.4 °F -0.4 °F -0.4 °F 62% 30.35 in 10.0 mi West 6.9 mph - N/A   Clear
2:15 AM 8.6 °F -1.3 °F 1.4 °F 73% 30.35 in 10.0 mi WSW 5.8 mph - N/A   Clear
2:35 AM 8.6 °F -1.3 °F 1.4 °F 73% 30.36 in 10.0 mi West 5.8 mph - N/A   Clear
3:15 AM 8.6 °F -2.6 °F -0.4 °F 67% 30.37 in 10.0 mi West 6.9 mph - N/A   Clear
3:35 AM 6.8 °F -5.9 °F -0.4 °F 72% 30.36 in 10.0 mi West 8.1 mph - N/A   Clear
3:55 AM 6.8 °F -4.8 °F -0.4 °F 72% 30.36 in 10.0 mi West 6.9 mph - N/A   Clear
4:15 AM 6.8 °F -6.9 °F 1.4 °F 79% 30.36 in 10.0 mi West 9.2 mph - N/A   Clear
4:35 AM 6.8 °F -6.9 °F 1.4 °F 79% 30.35 in 10.0 mi West 9.2 mph - N/A   Clear
4:55 AM 8.6 °F -4.7 °F 1.4 °F 73% 30.35 in 10.0 mi West 9.2 mph - N/A   Mostly Cloudy
5:55 AM 6.8 °F -5.9 °F -0.4 °F 72% 30.33 in 10.0 mi West 8.1 mph - N/A   Clear
6:15 AM 6.8 °F -5.9 °F 1.4 °F 79% 30.33 in 10.0 mi West 8.1 mph - N/A   Clear
6:35 AM 6.8 °F -4.8 °F -0.4 °F 72% 30.33 in 10.0 mi West 6.9 mph - N/A   Clear
6:55 AM 6.8 °F -0.1 °F -0.4 °F 72% 30.33 in 10.0 mi West 3.5 mph - N/A   Clear
7:15 AM 5.0 °F -4.1 °F -0.4 °F 78% 30.33 in 10.0 mi West 4.6 mph - N/A   Clear
7:35 AM 5.0 °F -5.6 °F 1.4 °F 85% 30.33 in 10.0 mi West 5.8 mph - N/A   Clear
7:55 AM 5.0 °F -2.1 °F -0.4 °F 78% 30.32 in 10.0 mi South 3.5 mph - N/A   Clear
8:15 AM 5.0 °F - -0.4 °F 78% 30.32 in 10.0 mi Calm Calm - N/A   Clear
8:35 AM 3.2 °F - -0.4 °F 85% 30.32 in 10.0 mi Calm Calm - N/A   Clear
8:55 AM 5.0 °F - 1.4 °F 85% 30.32 in 9.0 mi Calm Calm - N/A   Clear
9:15 AM 6.8 °F -2.0 °F 1.4 °F 79% 30.32 in 10.0 mi WSW 4.6 mph - N/A   Clear
9:35 AM 8.6 °F -1.3 °F 5.0 °F 85% 30.31 in 10.0 mi WSW 5.8 mph - N/A   Clear
9:55 AM 10.4 °F -2.4 °F 5.0 °F 79% 30.31 in 10.0 mi WSW 9.2 mph - N/A   Clear
10:15 AM 12.2 °F -1.0 °F 5.0 °F 73% 30.30 in 10.0 mi SW 10.4 mph - N/A   Clear
10:35 AM 15.8 °F 2.7 °F 3.2 °F 58% 30.29 in 10.0 mi SW 11.5 mph - N/A   Clear
10:55 AM 17.6 °F 4.3 °F 6.8 °F 63% 30.27 in 10.0 mi SW 12.7 mph - N/A   Clear
11:15 AM 19.4 °F 5.0 °F 8.6 °F 63% 30.27 in 10.0 mi SW 16.1 mph 21.9 mph N/A   Clear
11:35 AM 21.2 °F 6.8 °F 10.4 °F 63% 30.26 in 10.0 mi SW 17.3 mph - N/A   Clear
11:55 AM 21.2 °F 8.3 °F 10.4 °F 63% 30.26 in 10.0 mi SW 13.8 mph 18.4 mph N/A   Clear
12:15 PM 23.0 °F 11.1 °F 10.4 °F 59% 30.24 in 10.0 mi SW 12.7 mph 21.9 mph N/A   Clear
12:35 PM 24.8 °F 13.4 °F 10.4 °F 54% 30.23 in 10.0 mi SW 12.7 mph 21.9 mph N/A   Clear
12:55 PM 26.6 °F 14.3 °F 10.4 °F 51% 30.21 in 10.0 mi SW 16.1 mph 21.9 mph N/A   Clear
1:15 PM 26.6 °F 15.2 °F 10.4 °F 51% 30.20 in 10.0 mi WSW 13.8 mph 19.6 mph N/A   Clear
1:35 PM 26.6 °F 15.2 °F 10.4 °F 51% 30.19 in 10.0 mi SW 13.8 mph 25.3 mph N/A   Scattered Clouds
1:55 PM 28.4 °F 16.6 °F 10.4 °F 47% 30.18 in 10.0 mi WSW 16.1 mph 24.2 mph N/A   Overcast
2:15 PM 28.4 °F 16.2 °F 12.2 °F 51% 30.17 in 10.0 mi WSW 17.3 mph 23.0 mph N/A   Overcast
2:35 PM 28.4 °F 16.2 °F 10.4 °F 47% 30.17 in 10.0 mi WSW 17.3 mph 25.3 mph N/A   Mostly Cloudy
2:55 PM 28.4 °F 17.0 °F 10.4 °F 47% 30.16 in 10.0 mi SW 15.0 mph 23.0 mph N/A   Partly Cloudy
3:15 PM 28.4 °F 16.2 °F 10.4 °F 47% 30.16 in 10.0 mi SW 17.3 mph 23.0 mph N/A   Partly Cloudy
3:35 PM 28.4 °F 16.2 °F 10.4 °F 47% 30.16 in 10.0 mi SW 17.3 mph 23.0 mph N/A   Clear
3:55 PM 28.4 °F 17.0 °F 10.4 °F 47% 30.15 in 10.0 mi SW 15.0 mph 19.6 mph N/A   Clear
4:15 PM 28.4 °F 16.6 °F 10.4 °F 47% 30.14 in 10.0 mi SW 16.1 mph 21.9 mph N/A   Clear
4:35 PM 28.4 °F 17.5 °F 10.4 °F 47% 30.14 in 10.0 mi SW 13.8 mph 21.9 mph N/A   Clear
4:55 PM 28.4 °F 21.2 °F 8.6 °F 43% 30.15 in 10.0 mi SW 6.9 mph - N/A   Scattered Clouds
5:15 PM 26.6 °F 16.8 °F 10.4 °F 51% 30.14 in 10.0 mi SW 10.4 mph - N/A   Scattered Clouds
5:35 PM 28.4 °F 19.1 °F 10.4 °F 47% 30.13 in 10.0 mi SW 10.4 mph - N/A   Overcast
5:55 PM 26.6 °F 16.2 °F 10.4 °F 51% 30.13 in 10.0 mi SW 11.5 mph 16.1 mph N/A   Mostly Cloudy
6:35 PM 26.6 °F 19.1 °F 12.2 °F 55% 30.12 in 10.0 mi SSW 6.9 mph - N/A   Partly Cloudy
6:55 PM 26.6 °F 16.2 °F 14.0 °F 59% 30.12 in 10.0 mi SSW 11.5 mph 16.1 mph N/A   Clear
7:15 PM 26.6 °F 16.8 °F 12.2 °F 55% 30.11 in 10.0 mi SW 10.4 mph - N/A   Clear
7:35 PM 26.6 °F 15.2 °F 12.2 °F 55% 30.11 in 10.0 mi SW 13.8 mph 20.7 mph N/A   Clear
7:55 PM 26.6 °F 14.7 °F 12.2 °F 55% 30.11 in 10.0 mi SSW 15.0 mph 23.0 mph N/A   Clear
8:15 PM 26.6 °F 15.2 °F 14.0 °F 59% 30.10 in 10.0 mi SW 13.8 mph 23.0 mph N/A   Clear
8:35 PM 26.6 °F 13.4 °F 14.0 °F 59% 30.08 in 10.0 mi SSW 18.4 mph 24.2 mph N/A   Clear
8:55 PM 26.6 °F 14.7 °F 15.8 °F 64% 30.07 in 10.0 mi SW 15.0 mph 20.7 mph N/A   Clear
9:15 PM 26.6 °F 15.2 °F 12.2 °F 55% 30.07 in 10.0 mi SW 13.8 mph 23.0 mph N/A   Clear
9:35 PM 24.8 °F 12.4 °F 12.2 °F 59% 30.05 in 10.0 mi SW 15.0 mph 20.7 mph N/A   Clear
9:55 PM 24.8 °F 12.9 °F 12.2 °F 59% 30.05 in 10.0 mi SW 13.8 mph 24.2 mph N/A   Clear
10:15 PM 24.8 °F 12.9 °F 12.2 °F 59% 30.04 in 10.0 mi SW 13.8 mph 17.3 mph N/A   Clear
10:35 PM 24.8 °F 13.4 °F 12.2 °F 59% 30.03 in 10.0 mi SSW 12.7 mph - N/A   Partly Cloudy
10:55 PM 24.8 °F 13.4 °F 12.2 °F 59% 30.03 in 10.0 mi SW 12.7 mph 20.7 mph N/A   Scattered Clouds
11:15 PM 24.8 °F 12.4 °F 12.2 °F 59% 30.01 in 10.0 mi SSW 15.0 mph 20.7 mph N/A   Partly Cloudy
11:35 PM 24.8 °F 12.9 °F 10.4 °F 54% 30.00 in 10.0 mi SW 13.8 mph 23.0 mph N/A   Clear
11:55 PM 24.8 °F 13.4 °F 10.4 °F 54% 29.98 in 10.0 mi SW 12.7 mph 23.0 mph N/A   Clear